Location: Newark
(45.0333°N, 18.2865°E)
Time: 12:03:11
(UTC+00:00)

Tiangong - Visible Passes

Search period start: 24 September 2021 00:00
Search period end: 04 October 2021 00:00
Orbit: 382 x 385 km, 41.5° (Epoch: 24 September)

Date Brightness Start Highest point End Pass type
(mag) Time Alt. Az. Time Alt. Az. Time Alt. Az.
26 Sep 3.3 04:01:26 10° SSW 04:03:50 20° SSE 04:06:14 10° ESE visible
27 Sep 3.6 03:03:06 12° S 03:04:08 14° SSE 03:05:48 10° ESE visible
28 Sep 2.6 03:38:24 13° SW 03:40:38 27° SSE 03:43:23 10° ESE visible
29 Sep 3.3 02:41:26 19° SE 02:41:26 19° SE 02:43:16 10° ESE visible
30 Sep 2.1 03:16:37 29° SSW 03:17:27 35° SSE 03:20:22 10° E visible
01 Oct 3.9 02:19:35 15° ESE 02:19:35 15° ESE 02:20:22 10° ESE visible
01 Oct 1.8 03:51:47 15° WSW 03:54:07 43° S 03:57:09 10° ESE visible
02 Oct 2.1 02:54:44 38° SSE 02:54:44 38° SSE 02:57:16 10° ESE visible
03 Oct 1.8 03:29:53 29° SW 03:30:56 40° S 03:33:56 10° ESE visible
